Terminal Aerodrome Forecast
Issued by NWS

Home | Current Version | Previous Version | Text Only | Print | Product List | Glossary On
Versions: 1 2 3 4 5 6 7 8 9 10 11 12 13 14 15 16 17 18 19 20 21 22 23 24 25 26 27 28 29 30 31
000
FTUS41 KBOX 221728
TAFACK
TAF
KACK 221728Z 2218/2318 07012KT P6SM SCT035
     FM222000 08012KT P6SM BKN035
     FM230400 10012G23KT P6SM OVC015
     FM230900 09014G24KT 3SM -RA BR OVC015=

USA.gov is the U.S. government's official web portal to all federal, state and local government web resources and services.